OneWeb SL0185

operational
NORAD ID: 48220 Int'l Des: 2021-031 Owner: ONEWEBN Country: UK Constellation: oneweb
LEOCIRCULARPOLARONEWEB_TYPE

Über OneWeb SL0185

Beschreibung wird geladen...

Live-Position

3D-Globus wird geladen...

Nächste Überflüge

Höhenverlauf

Altitude vs Time

uPlot chart will show altitude changes over time

Zweizeiliger Elementsatz

1 48220U 21031L 25303.11377972 -.00000101 00000-0 -30712-3 0 9993
2 48220 87.9016 335.5222 0001905 84.5646 275.5700 13.14501790218029
Epoch: 30. Okt. 2025 • Age: 23 hours

Aktueller Status

Höhe 1231.8 km
Geschwindigkeit 7.24 km/s
Subsatellitenpunkt -64.78°S, 101.01°W
Startdatum 25. Apr. 2021
Alter 4.5 years
Typ internet

Technische Details

Klassifizierung Payload
Masse 148.00 kg
Trockenmasse 140.00 kg
Gesamtmasse 148.00 kg
Länge 1.30 m
Durchmesser 1.00 m
Spannweite 5.00 m
Form Trapezoid+2 pan
Hersteller ONEWUS
Bus-Typ ARROW
Phasenstatus In Orbit
Besitzer/Staat ONEWEBN/UK

Große Konstellationen

Loading constellations...